Location: Coffee Creek Observatory
(38.8077°N, 94.7179°W)
Time: 09:29:31
(UTC-05:00)

Amateur Radio Satellites - All Passes

Search period start: 06 May 2015 08:59
Search period end: 07 May 2015 08:59
Location: Coffee Creek Observatory, 38.8077°N, 94.7179°W

Satellite Date Start Highest point End Downlink Frequencies (MHz)
Time Altitude Azimuth
Cosmos 2491 06 May 09:04:35 09:13:11 54° 76° (ENE) 09:21:47 435.465 / 435.565
GOMX 1 06 May 09:13:21 09:18:21 37° 96° (E) 09:23:25 467.674
CANX-2 06 May 09:19:51 09:23:23 26° 94° (E) 09:26:57 2200.000
CUTE 1.7 + AOD 2 06 May 09:27:02 09:30:41 28° 95° (E) 09:34:21 437.475
AIST 2 06 May 09:28:45 09:32:06 23° 48° (NE) 09:35:29 435.215
SO-50 06 May 09:35:51 09:40:29 80° 302° (WNW) 09:45:19 436.795
COMPASS 1 06 May 09:42:11 09:45:43 27° 95° (E) 09:49:18 437.405
Oscar 11 06 May 09:44:55 09:46:01 11° 88° (E) 09:47:23 145.826/435.025
CINEMA 3 06 May 09:46:57 09:51:03 25° 93° (E) 09:55:11 145.822/145.860
HO-68 06 May 09:48:52 09:55:53 56° 101° (E) 10:02:54 435.675
YUBILEINY 06 May 10:03:20 10:11:52 57° 91° (E) 10:20:26 435.215
CUBEBUG 2 06 May 10:03:25 10:06:36 18° 91° (E) 10:09:54 437.445
UWE-3 06 May 10:04:44 10:07:15 15° 89° (E) 10:09:56 435.000/436.395/437.385
DELFI C3 06 May 10:08:19 10:10:29 14° 91° (E) 10:12:48 145.870
TIGRISAT 06 May 10:10:40 10:14:03 21° 68° (ENE) 10:17:35 435.000
ZACube-1 06 May 10:12:45 10:14:59 14° 89° (E) 10:17:25 437.345
BEESAT 3 06 May 10:12:57 10:16:35 31° 246° (WSW) 10:20:07 437.485
AAUSAT CUBESAT 2 06 May 10:14:11 10:18:18 56° 100° (E) 10:22:21 437.432
UNISAT 6 06 May 10:19:59 10:23:48 27° 69° (ENE) 10:27:46 437.425
QB50P1 06 May 10:21:57 10:23:20 12° 65° (ENE) 10:24:56 145.935-145.965
SEEDS 06 May 10:26:14 10:30:26 70° 284° (WNW) 10:34:35 437.485
BRITE-PL 06 May 10:27:03 10:31:57 33° 289° (WNW) 10:36:54 437.365/2234.400
ISS 06 May 10:28:59 10:30:28 12° 344° (NNW) 10:31:55 145.825
DOVE 4 06 May 10:29:55 10:35:10 63° 286° (WNW) 10:40:24 437.250
BEESAT 2 06 May 10:30:14 10:33:39 25° 247° (WSW) 10:36:57 435.950
DX 1 06 May 10:38:10 10:40:13 13° 91° (E) 10:42:29 434.975-435.025
QB50P2 06 May 10:50:15 10:53:40 25° 70° (ENE) 10:57:12 145.880/145.840
GOMX 1 06 May 10:51:41 10:56:19 29° 291° (WNW) 11:00:55 467.674
CANX-2 06 May 10:55:45 10:59:15 24° 290° (WNW) 11:02:38 2200.000
NANOSAT C BR1 06 May 10:59:27 11:03:07 30° 71° (ENE) 11:06:51 145.865
ANTELSAT 06 May 11:01:34 11:06:12 73° 76° (ENE) 11:10:55 437.575/2403.000
Cosmos 2491 06 May 11:02:09 11:09:42 32° 275° (W) 11:16:59 435.465 / 435.565
UKube-1 06 May 11:02:50 11:06:18 24° 95° (E) 11:09:52 .
CUTE 1.7 + AOD 2 06 May 11:03:07 11:06:30 23° 290° (WNW) 11:09:45 437.475
AIST 2 06 May 11:06:56 11:10:48 34° 245° (WSW) 11:14:33 435.215
POPSAT HIP 1 06 May 11:08:03 11:11:56 37° 72° (ENE) 11:15:54 437.405
FUNcube-1 06 May 11:16:43 11:21:17 71° 101° (E) 11:25:44 145.935
COMPASS 1 06 May 11:17:59 11:21:18 22° 290° (WNW) 11:24:30 437.405
Oscar 11 06 May 11:18:24 11:22:41 58° 285° (WNW) 11:26:53 145.826/435.025
AISAT 06 May 11:18:25 11:21:32 19° 92° (E) 11:24:48 437.250
AIST 1 06 May 11:18:36 11:22:55 80° 263° (W) 11:27:13
SO-50 06 May 11:19:42 11:21:56 13° 323° (NW) 11:24:00 436.795
RS-15 06 May 11:21:55 11:28:16 19° 102° (ESE) 11:35:24 29.354- 29.394
CINEMA 3 06 May 11:23:44 11:28:18 35° 289° (WNW) 11:32:45 145.822/145.860
DUCHIFAT 1 06 May 11:28:57 11:33:07 65° 75° (ENE) 11:37:20 145.980
50 SAT 06 May 11:34:53 11:38:22 29° 96° (E) 11:41:50 437.505
HO-68 06 May 11:37:19 11:43:16 28° 298° (WNW) 11:49:01 435.675
CUBEBUG 2 06 May 11:39:01 11:43:32 42° 288° (WNW) 11:47:55 437.445
UWE-3 06 May 11:39:37 11:44:09 50° 287° (WNW) 11:48:34 435.000/436.395/437.385
HUMSAT D 06 May 11:40:42 11:44:58 62° 100° (E) 11:49:11 437.325/437.525
DELFI C3 06 May 11:42:05 11:45:50 38° 287° (WNW) 11:49:33 145.870
POLYITAN 1 06 May 11:43:01 11:47:16 81° 256° (WSW) 11:51:35 437.675
TIGRISAT 06 May 11:46:14 11:50:33 38° 263° (W) 11:54:56 435.000
ZACube-1 06 May 11:47:17 11:51:45 52° 286° (WNW) 11:56:05 437.345
AAUSAT CUBESAT 2 06 May 11:51:53 11:53:29 12° 294° (WNW) 11:54:52 437.432
QB50P1 06 May 11:54:33 11:58:44 60° 260° (W) 12:02:57 145.935-145.965
UNISAT 6 06 May 11:56:26 12:00:30 29° 265° (W) 12:04:35 437.425
YUBILEINY 06 May 12:01:38 12:09:14 30° 291° (WNW) 12:16:36 435.215
CUBEBUG 1 06 May 12:01:38 12:05:20 26° 95° (E) 12:09:05 437.445
VERMONT LUNAR 06 May 12:03:10 12:06:12 36° 155° (SSE) 12:09:18 437.305
BUGSAT 1 06 May 12:03:22 12:07:22 70° 258° (WSW) 12:11:26 437.445
DX 1 06 May 12:12:33 12:16:48 50° 287° (WNW) 12:21:02 434.975-435.025
QB50P2 06 May 12:25:55 12:29:31 26° 265° (W) 12:33:03 145.880/145.840
Oscar 19 06 May 12:28:51 12:30:27 12° 61° (ENE) 12:32:19 437.125/150
VELOX 1 06 May 12:31:09 12:35:36 69° 285° (WNW) 12:40:02 145.980
NANOSAT C BR1 06 May 12:35:45 12:39:00 21° 267° (W) 12:42:11 145.865
SPROUT 06 May 12:35:57 12:38:41 17° 91° (E) 12:41:34 437.525
ESTCUBE 1 06 May 12:38:34 12:43:05 80° 103° (ESE) 12:47:35 437.505/2401.250
UKube-1 06 May 12:38:42 12:42:27 28° 290° (WNW) 12:46:07 .
Cosmos 2504 06 May 12:41:49 12:50:26 60° 92° (E) 12:58:48 435.465 / 435.565
ANTELSAT 06 May 12:42:54 12:43:37 10° 273° (W) 12:44:00 437.575/2403.000
POPSAT HIP 1 06 May 12:45:13 12:48:01 17° 268° (W) 12:50:41 437.405
AISAT 06 May 12:54:08 12:58:18 37° 288° (WNW) 13:02:24 437.250
TISAT 1 06 May 12:54:21 12:57:28 20° 93° (E) 13:00:42 437.305
FUNcube-1 06 May 12:55:30 12:57:03 11° 296° (WNW) 12:58:21 145.935
PHONESAT 2.4 06 May 12:58:18 13:01:29 33° 153° (SSE) 13:04:42 2401.200-2431.200
50 SAT 06 May 13:10:02 13:12:59 19° 291° (WNW) 13:15:48 437.505
HUMSAT D 06 May 13:18:39 13:20:15 12° 295° (WNW) 13:21:36 437.325/437.525
RS-15 06 May 13:28:20 13:39:13 87° 120° (ESE) 13:50:24 29.354- 29.394
ITAMSAT 1 06 May 13:29:35 13:31:54 14° 63° (ENE) 13:34:31 435.822/435.867
Gurwin Techsat 1B 06 May 13:31:00 13:33:03 13° 62° (ENE) 13:35:24 435.225
CUBEBUG 1 06 May 13:37:57 13:41:39 26° 290° (WNW) 13:45:15 437.445
VERMONT LUNAR 06 May 13:40:11 13:43:29 74° 350° (N) 13:46:50 437.305
ISS 06 May 13:42:55 13:45:21 19° 24° (NNE) 13:47:49 145.825
ITUPSAT 1 06 May 13:55:50 13:58:24 15° 90° (E) 14:01:11 437.325
Oscar 19 06 May 14:03:57 14:09:08 87° 255° (WSW) 14:14:23 437.125/150
SPROUT 06 May 14:10:54 14:14:59 39° 287° (WNW) 14:19:00 437.525
BEESAT 06 May 14:17:41 14:21:37 26° 95° (E) 14:25:38 436.000
SWISSCUBE 06 May 14:22:05 14:26:17 31° 96° (E) 14:30:33 437.505
JAS-2 06 May 14:29:07 14:31:22 12° 58° (ENE) 14:34:03 435.910
TISAT 1 06 May 14:29:30 14:33:20 32° 289° (WNW) 14:37:07 437.305
GONETS M04 06 May 14:31:55 14:37:00 18° 80° (E) 14:42:40
AO-7 06 May 14:33:48 14:38:43 18° 53° (NE) 14:44:03 29.400- 29.500
PHONESAT 2.4 06 May 14:36:00 14:39:32 80° 347° (NNW) 14:43:06 2401.200-2431.200
Cosmos 2504 06 May 14:36:52 14:44:24 29° 291° (WNW) 14:51:28 435.465 / 435.565
ITAMSAT 1 06 May 15:05:43 15:10:52 74° 258° (WSW) 15:16:04 435.822/435.867
Gurwin Techsat 1B 06 May 15:07:06 15:12:25 83° 257° (WSW) 15:17:46 435.225
VERMONT LUNAR 06 May 15:17:42 15:21:02 69° 7° (N) 15:24:23 437.305
ISS 06 May 15:18:44 15:21:57 61° 221° (SW) 15:25:09 145.825
PCSat 06 May 15:20:51 15:26:07 50° 57° (ENE) 15:31:24 145.827
CUSAT 1 06 May 15:22:00 15:25:11 18° 82° (E) 15:29:10 437.405
HORYU 2 06 May 15:30:56 15:34:52 31° 70° (ENE) 15:38:52 437.375
ITUPSAT 1 06 May 15:32:02 15:36:41 53° 287° (WNW) 15:41:18 437.325
DANDE 06 May 15:39:47 15:42:46 18° 82° (E) 15:46:31 436.750
RS-15 06 May 15:43:49 15:53:14 31° 326° (NW) 16:02:43 29.354- 29.394
KKS-1 06 May 15:46:05 15:50:18 39° 98° (E) 15:54:32 437.445
BEESAT 06 May 15:55:18 15:59:28 30° 291° (WNW) 16:03:34 436.000
SWISSCUBE 06 May 16:00:07 16:04:03 25° 292° (WNW) 16:07:53 437.505
JAS-2 06 May 16:07:51 16:15:28 64° 73° (ENE) 16:22:33 435.910
STARS 06 May 16:10:51 16:15:09 46° 99° (E) 16:19:26 437.465
PHONESAT 2.4 06 May 16:14:20 16:17:53 68° 6° (N) 16:21:27 2401.200-2431.200
AO-7 06 May 16:22:11 16:30:28 82° 71° (ENE) 16:38:47 29.400- 29.500
GONETS M04 06 May 16:24:03 16:32:51 85° 276° (W) 16:41:46
Cosmos 2499 06 May 16:28:43 16:33:50 18° 82° (E) 16:39:18 435.465 / 435.565
SO-50 06 May 16:30:26 16:31:54 11° 36° (NE) 16:33:32 436.795
VERMONT LUNAR 06 May 16:55:10 16:58:23 43° 204° (SSW) 17:01:35 437.305
CUSAT 1 06 May 17:02:29 17:07:06 49° 287° (WNW) 17:13:13 437.405
PCSat 06 May 17:05:11 17:09:13 21° 253° (WSW) 17:13:04 145.827
HORYU 2 06 May 17:07:55 17:11:34 23° 266° (W) 17:15:06 437.375
DANDE 06 May 17:21:05 17:25:18 43° 288° (WNW) 17:30:58 436.750
KKS-1 06 May 17:23:29 17:26:41 19° 293° (WNW) 17:29:44 437.445
MOZHAYETS 4 06 May 17:41:14 17:45:40 49° 99° (E) 17:50:06
CUTE-I 06 May 17:47:53 17:51:56 23° 66° (ENE) 17:56:07 437.470
STARS 06 May 17:48:27 17:51:16 16° 294° (WNW) 17:53:54 437.465
PHONESAT 2.4 06 May 17:52:36 17:56:05 51° 202° (SSW) 17:59:33 2401.200-2431.200
JAS-2 06 May 17:54:43 18:00:54 25° 268° (W) 18:06:32 435.910
Cubesat XI-IV 06 May 18:00:44 18:05:17 31° 68° (ENE) 18:09:56 437.490
RS-15 06 May 18:04:05 18:10:50 17° 0° (N) 18:17:47 29.354- 29.394
SO-50 06 May 18:08:32 18:13:29 65° 56° (ENE) 18:18:21 436.795
Cosmos 2499 06 May 18:17:22 18:26:12 86° 276° (W) 18:34:35 435.465 / 435.565
AO-7 06 May 18:18:34 18:24:18 19° 270° (W) 18:29:35 29.400- 29.500
GONETS M04 06 May 18:25:49 18:31:20 17° 300° (WNW) 18:36:20
MOZHAYETS 4 06 May 19:19:45 19:22:32 16° 294° (WNW) 19:25:08
CUTE-I 06 May 19:26:45 19:31:47 43° 262° (W) 19:36:49 437.470
PHONESAT 2.4 06 May 19:32:26 19:33:50 12° 215° (SW) 19:35:06 2401.200-2431.200
Cubesat XI-IV 06 May 19:40:38 19:45:21 31° 264° (W) 19:50:02 437.490
M-CUBED/EXP-1 PRIME 06 May 19:50:03 19:53:35 40° 103° (ESE) 19:56:54 437.505
SO-50 06 May 19:50:46 19:53:34 15° 251° (WSW) 19:56:06 436.795
CUBESAT XI-V 06 May 19:52:17 19:56:56 84° 283° (WNW) 20:01:36 437.345
PRISM 06 May 19:55:05 19:59:06 54° 100° (E) 20:03:07 437.425
BRITE-PL 06 May 19:59:12 20:02:47 26° 69° (ENE) 20:06:40 437.365/2234.400
DOVE 4 06 May 19:59:57 20:01:34 12° 63° (ENE) 20:03:27 437.250
STRAND 1 06 May 20:04:27 20:09:27 53° 100° (E) 20:14:28 437.568
CANX-2 06 May 20:12:22 20:15:07 17° 68° (ENE) 20:18:01 2200.000
Cosmos 2499 06 May 20:15:15 20:20:41 17° 298° (WNW) 20:25:28 435.465 / 435.565
YUBILEINY 06 May 20:15:50 20:22:39 26° 66° (ENE) 20:29:44 435.215
HO-68 06 May 20:16:13 20:22:36 37° 65° (ENE) 20:29:07 435.675
RS-15 06 May 20:18:52 20:28:31 31° 34° (NE) 20:38:46 29.354- 29.394
CUTE 1.7 + AOD 2 06 May 20:19:22 20:22:17 19° 68° (ENE) 20:25:21 437.475
AUBIESAT-1 06 May 20:20:22 20:24:07 88° 293° (WNW) 20:27:34 437.475
GOMX 1 06 May 20:20:56 20:24:43 29° 69° (ENE) 20:28:50 467.674
COMPASS 1 06 May 20:33:02 20:35:45 17° 68° (ENE) 20:38:37 437.405
O/OREOS (USA 219) 06 May 20:39:03 20:43:38 86° 111° (ESE) 20:48:12 437.305
CINEMA 3 06 May 20:48:03 20:51:16 20° 67° (ENE) 20:54:44 145.822/145.860
CUBEBUG 2 06 May 21:01:26 21:03:41 14° 65° (ENE) 21:06:12 437.445
UWE-3 06 May 21:02:12 21:03:28 11° 64° (ENE) 21:04:59 435.000/436.395/437.385
AAUSAT CUBESAT 2 06 May 21:03:52 21:07:36 32° 72° (ENE) 21:11:24 437.432
ZACube-1 06 May 21:09:31 21:10:06 10° 63° (ENE) 21:10:58 437.345
SEEDS 06 May 21:16:39 21:20:53 68° 76° (ENE) 21:25:09 437.485
M-CUBED/EXP-1 PRIME 06 May 21:26:20 21:28:05 13° 300° (WNW) 21:29:39 437.505
JUGNU 06 May 21:27:28 21:28:50 11° 175° (S) 21:30:15 437.505
PRISM 06 May 21:32:29 21:34:10 12° 295° (WNW) 21:35:40 437.425
DOVE 4 06 May 21:34:14 21:38:41 70° 259° (W) 21:43:28 437.250
DX 1 06 May 21:34:15 21:35:09 11° 64° (ENE) 21:36:19 434.975-435.025
BRITE-PL 06 May 21:37:41 21:41:19 25° 267° (W) 21:45:06 437.365/2234.400
STRAND 1 06 May 21:44:49 21:48:17 18° 295° (WNW) 21:51:34 437.568
CANX-2 06 May 21:46:43 21:50:47 39° 263° (W) 21:54:50 2200.000
CUTE 1.7 + AOD 2 06 May 21:53:59 21:57:59 36° 263° (W) 22:01:57 437.475
UKube-1 06 May 21:57:11 22:00:04 18° 67° (ENE) 22:03:06 .
GOMX 1 06 May 21:59:15 22:02:55 24° 268° (W) 22:06:42 467.674
HO-68 06 May 22:03:31 22:10:16 41° 262° (W) 22:16:58 435.675
Cosmos 2491 06 May 22:03:40 22:12:13 65° 93° (E) 22:20:55 435.465 / 435.565
COMPASS 1 06 May 22:07:13 22:11:10 38° 262° (W) 22:15:08 437.405
FUNcube-1 06 May 22:10:57 22:15:13 47° 73° (ENE) 22:19:36 145.935
Oscar 11 06 May 22:11:28 22:15:50 90° 79° (E) 22:20:13 145.826/435.025
YUBILEINY 06 May 22:11:39 22:20:17 65° 267° (W) 22:28:48 435.215
AISAT 06 May 22:15:58 22:18:27 15° 66° (ENE) 22:21:07 437.250
50 SAT 06 May 22:19:51 22:22:12 16° 68° (ENE) 22:24:43 437.505
O/OREOS (USA 219) 06 May 22:22:56 22:23:47 10° 309° (NW) 22:24:23 437.305
CINEMA 3 06 May 22:23:51 22:28:10 41° 263° (W) 22:32:40 145.822/145.860
DELFI C3 06 May 22:27:42 22:31:47 78° 258° (WSW) 22:35:52 145.870
RS-15 06 May 22:31:03 22:42:45 90° 78° (ENE) 22:54:55 29.354- 29.394
HUMSAT D 06 May 22:31:12 22:35:07 36° 72° (ENE) 22:39:08 437.325/437.525
UWE-3 06 May 22:34:54 22:39:25 73° 260° (W) 22:44:03 435.000/436.395/437.385
CUBEBUG 2 06 May 22:35:25 22:39:53 59° 261° (W) 22:44:32 437.445
Cosmos 2504 06 May 22:38:35 22:43:05 17° 62° (ENE) 22:47:52 435.465 / 435.565
AAUSAT CUBESAT 2 06 May 22:40:12 22:43:19 19° 267° (W) 22:46:19 437.432
ZACube-1 06 May 22:41:23 22:45:52 78° 258° (WSW) 22:50:27 437.345
ANTELSAT 06 May 22:56:19 22:59:16 17° 91° (E) 23:02:20 437.575/2403.000
CUBEBUG 1 06 May 22:57:18 23:00:20 19° 68° (ENE) 23:03:29 437.445
DX 1 06 May 23:06:35 23:10:54 69° 258° (WSW) 23:15:14 434.975-435.025
JUGNU 06 May 23:15:23 23:16:58 11° 185° (S) 23:18:31 437.505
DUCHIFAT 1 06 May 23:17:12 23:18:39 12° 89° (E) 23:20:21 145.980
VELOX 1 06 May 23:27:18 23:31:41 89° 77° (ENE) 23:36:07 145.980
SPROUT 06 May 23:30:32 23:31:59 12° 65° (ENE) 23:33:39 437.525
POLYITAN 1 06 May 23:30:47 23:33:45 18° 92° (E) 23:36:50 437.675
UKube-1 06 May 23:31:57 23:35:58 37° 262° (W) 23:39:59 .
ESTCUBE 1 06 May 23:36:49 23:41:14 62° 75° (ENE) 23:45:42 437.505/2401.250
TIGRISAT 06 May 23:39:08 23:43:38 49° 99° (E) 23:48:01 435.000
QB50P1 06 May 23:41:30 23:44:58 24° 94° (E) 23:48:29 145.935-145.965
AIST 1 06 May 23:46:34 23:50:47 63° 95° (E) 23:55:00
TISAT 1 06 May 23:46:39 23:48:38 14° 66° (ENE) 23:50:50 437.305
BUGSAT 1 06 May 23:47:37 23:50:34 19° 93° (E) 23:53:38 437.445
SRMSAT 06 May 23:48:40 23:50:39 12° 179° (S) 23:52:40 437.500
FUNcube-1 06 May 23:49:09 23:51:52 15° 270° (W) 23:54:26 145.935
UNISAT 6 06 May 23:49:10 23:53:47 66° 101° (E) 23:58:16 437.425
AISAT 06 May 23:50:27 23:54:42 47° 261° (W) 23:58:59 437.250
50 SAT 06 May 23:52:54 23:56:41 38° 262° (W) 00:00:30 437.505
Cosmos 2491 07 May 00:02:39 00:09:52 27° 293° (WNW) 00:16:50 435.465 / 435.565
BEESAT 3 07 May 00:04:00 00:08:00 62° 118° (ESE) 00:12:05 437.485
HUMSAT D 07 May 00:08:02 00:11:02 18° 268° (W) 00:13:56 437.325/437.525
QB50P2 07 May 00:11:43 00:15:58 54° 100° (E) 00:20:11 145.880/145.840
NANOSAT C BR1 07 May 00:20:42 00:24:59 68° 101° (E) 00:29:15 145.865
BEESAT 2 07 May 00:21:53 00:25:59 81° 121° (ESE) 00:30:08 435.950
POPSAT HIP 1 07 May 00:29:50 00:34:10 87° 102° (ESE) 00:38:29 437.405
Cosmos 2504 07 May 00:30:04 00:37:44 80° 265° (W) 00:44:57 435.465 / 435.565
ANTELSAT 07 May 00:31:56 00:36:19 42° 288° (WNW) 00:40:34 437.575/2403.000
CUBEBUG 1 07 May 00:32:32 00:36:30 34° 263° (W) 00:40:27 437.445
RS-15 07 May 00:45:32 00:54:04 22° 257° (WSW) 01:02:05 29.354- 29.394
DUCHIFAT 1 07 May 00:50:40 00:54:53 55° 286° (WNW) 00:59:04 145.980
ITUPSAT 1 07 May 01:01:50 01:04:38 16° 65° (ENE) 01:07:38 437.325
AIST 2 07 May 01:02:58 01:07:11 66° 119° (ESE) 01:11:27 435.215
SPROUT 07 May 01:03:22 01:07:37 61° 260° (W) 01:11:52 437.525
POLYITAN 1 07 May 01:05:50 01:09:48 35° 288° (WNW) 01:13:43 437.675
TIGRISAT 07 May 01:17:05 01:19:59 16° 294° (WNW) 01:22:41 435.000
ESTCUBE 1 07 May 01:17:08 01:18:37 11° 271° (W) 01:19:49 437.505/2401.250
QB50P1 07 May 01:17:08 01:20:49 27° 290° (WNW) 01:24:26 145.935-145.965
TISAT 1 07 May 01:19:58 01:24:02 49° 261° (W) 01:28:09 437.305
BUGSAT 1 07 May 01:22:18 01:26:08 34° 288° (WNW) 01:29:58 437.445
BEESAT 07 May 01:23:08 01:27:03 27° 69° (ENE) 01:31:05 436.000
SWISSCUBE 07 May 01:27:32 01:31:43 32° 70° (ENE) 01:35:58 437.505
UNISAT 6 07 May 01:28:00 01:30:02 12° 296° (WNW) 01:31:49 437.425
BEESAT 3 07 May 01:44:07 01:46:28 14° 317° (NW) 01:48:41 437.485
QB50P2 07 May 01:49:20 01:51:26 13° 294° (WNW) 01:53:20 145.880/145.840
CUSAT 1 07 May 01:58:36 02:04:53 24° 64° (ENE) 02:11:18 437.405
NANOSAT C BR1 07 May 01:59:13 02:00:20 11° 295° (WNW) 02:01:12 145.865
BEESAT 2 07 May 02:02:58 02:04:42 12° 319° (NW) 02:06:16 435.950
Oscar 19 07 May 02:17:08 02:21:55 37° 97° (E) 02:26:42 437.125/150
DANDE 07 May 02:18:56 02:25:45 28° 66° (ENE) 02:32:50 436.750
Cosmos 2504 07 May 02:27:36 02:29:55 11° 282° (WNW) 02:31:36 435.465 / 435.565
GONETS M04 07 May 02:36:15 02:44:37 46° 74° (ENE) 02:52:58
ITUPSAT 1 07 May 02:37:29 02:42:09 53° 260° (W) 02:46:50 437.325
KKS-1 07 May 02:43:11 02:47:04 31° 70° (ENE) 02:51:03 437.445
AIST 2 07 May 02:43:45 02:46:15 15° 317° (NW) 02:48:38 435.215
BEESAT 07 May 03:00:37 03:04:49 30° 264° (W) 03:08:59 436.000
SWISSCUBE 07 May 03:05:41 03:09:37 25° 266° (W) 03:13:28 437.505
STARS 07 May 03:06:38 03:10:36 35° 71° (ENE) 03:14:39 437.465
ITAMSAT 1 07 May 03:19:57 03:24:53 43° 98° (E) 03:29:50 435.822/435.867
Gurwin Techsat 1B 07 May 03:24:47 03:29:50 44° 98° (E) 03:34:54 435.225
CUSAT 1 07 May 03:40:11 03:48:33 77° 264° (W) 03:56:22 437.405
Oscar 19 07 May 03:56:50 04:01:07 26° 293° (WNW) 04:05:15 437.125/150
DANDE 07 May 04:01:17 04:09:44 70° 264° (W) 04:17:57 436.750
Cosmos 2499 07 May 04:11:45 04:17:54 29° 69° (ENE) 04:23:59 435.465 / 435.565
KKS-1 07 May 04:20:14 04:23:46 22° 266° (W) 04:27:13 437.445
AO-7 07 May 04:25:56 04:32:50 29° 94° (E) 04:39:58 29.400- 29.500
GONETS M04 07 May 04:33:24 04:41:20 37° 273° (W) 04:49:02
MOZHAYETS 4 07 May 04:41:51 04:46:09 40° 73° (ENE) 04:50:30
STARS 07 May 04:43:55 04:47:11 20° 267° (W) 04:50:21 437.465
HORYU 2 07 May 04:59:22 05:03:51 75° 102° (ESE) 05:08:17 437.375
ITAMSAT 1 07 May 05:00:08 05:04:08 22° 294° (WNW) 05:08:01 435.822/435.867
JAS-2 07 May 05:05:03 05:10:37 56° 99° (E) 05:15:46 435.910
Gurwin Techsat 1B 07 May 05:05:25 05:09:34 23° 294° (WNW) 05:13:34 435.225
O/OREOS (USA 219) 07 May 05:12:53 05:14:58 13° 53° (NE) 05:17:15 437.305
CUSAT 1 07 May 05:25:42 05:30:09 15° 279° (W) 05:33:55 437.405
AUBIESAT-1 07 May 05:34:57 05:36:15 11° 60° (ENE) 05:37:48 437.475
DANDE 07 May 05:47:51 05:51:51 14° 280° (W) 05:55:11 436.750
PCSat 07 May 06:00:59 06:06:17 61° 115° (ESE) 06:11:40 145.827
Cosmos 2499 07 May 06:04:24 06:11:22 46° 270° (W) 06:18:00 435.465 / 435.565
AO-7 07 May 06:17:58 06:26:07 59° 293° (WNW) 06:34:14 29.400- 29.500
MOZHAYETS 4 07 May 06:20:19 06:23:35 18° 268° (W) 06:26:43
Cubesat XI-IV 07 May 06:20:47 06:22:58 13° 88° (E) 06:25:29 437.490
M-CUBED/EXP-1 PRIME 07 May 06:35:53 06:40:33 53° 69° (ENE) 06:45:05 437.505
HORYU 2 07 May 06:38:58 06:39:56 10° 297° (WNW) 06:40:39 437.375
PRISM 07 May 06:44:09 06:47:51 33° 71° (ENE) 06:51:35 437.425
O/OREOS (USA 219) 07 May 06:50:29 06:54:54 62° 252° (WSW) 06:59:18 437.305
JAS-2 07 May 06:51:27 06:55:14 18° 298° (WNW) 06:58:39 435.910
CUBESAT XI-V 07 May 06:54:13 06:58:50 81° 77° (ENE) 07:03:27 437.345
AUBIESAT-1 07 May 07:05:44 07:10:31 85° 253° (WSW) 07:15:09 437.475
STRAND 1 07 May 07:19:01 07:24:03 68° 75° (ENE) 07:29:09 437.568
CUTE-I 07 May 07:44:42 07:50:04 85° 101° (ESE) 07:55:26 437.470
PCSat 07 May 07:46:07 07:50:11 21° 313° (NW) 07:54:09 145.827
ISS 07 May 07:55:54 07:59:07 81° 143° (SE) 08:02:22 145.825
Cubesat XI-IV 07 May 07:58:23 08:03:43 72° 286° (WNW) 08:09:02 437.490
BRITE-PL 07 May 08:05:52 08:08:05 13° 87° (E) 08:10:42 437.365/2234.400
M-CUBED/EXP-1 PRIME 07 May 08:12:35 08:15:38 16° 264° (W) 08:18:28 437.505
AO-7 07 May 08:14:01 08:17:24 13° 312° (NW) 08:20:17 29.400- 29.500
Cosmos 2491 07 May 08:16:08 08:23:31 30° 68° (ENE) 08:31:07 435.465 / 435.565
PRISM 07 May 08:20:32 08:23:26 18° 267° (W) 08:26:12 437.425
SO-50 07 May 08:22:20 08:26:12 27° 113° (ESE) 08:30:17 436.795
BEESAT 3 07 May 08:24:19 08:27:47 26° 50° (NE) 08:31:14 437.485
GOMX 1 07 May 08:25:16 08:27:16 12° 87° (E) 08:29:37 467.674
BEESAT 2 07 May 08:42:38 08:46:22 33° 52° (NE) 08:50:04 435.950
